Time,TemperatureF,DewpointF,PressureIn,WindDirection,WindDirectionDegrees,WindSpeedMPH,WindSpeedGustMPH,Humidity,HourlyPrecipIn,Conditions,Clouds,dailyrainin,SoftwareType,DateUTC
2013-01-14 00:00:00,60.8,58.8,30.17,South,180,0.0,0.0,93,0.00,SCT,,0.00,WeatherDisplay:10.37,2013-01-14 05:00:00,
2013-01-14 00:02:00,60.8,58.8,30.16,South,180,0.0,0.0,93,0.00,BKN,,0.00,WeatherDisplay:10.37,2013-01-14 05:02:00,
2013-01-14 00:03:00,60.6,58.6,30.16,South,180,0.0,0.0,93,0.00,BKN,,0.00,WeatherDisplay:10.37,2013-01-14 05:03:00,
2013-01-14 00:08:00,60.4,58.4,30.16,South,180,0.0,0.0,93,0.00,BKN,,0.00,WeatherDisplay:10.37,2013-01-14 05:08:00,
2013-01-14 00:13:00,60.3,58.3,30.17,South,180,0.0,0.0,93,0.00,BKN,,0.00,WeatherDisplay:10.37,2013-01-14 05:13:00,
2013-01-14 00:18:00,60.1,58.1,30.17,South,180,0.0,0.0,93,0.00,BKN,,0.00,WeatherDisplay:10.37,2013-01-14 05:18:00,
2013-01-14 00:23:00,59.7,57.7,30.17,South,180,0.0,0.0,93,0.00,BKN,,0.00,WeatherDisplay:10.37,2013-01-14 05:23:00,
2013-01-14 00:29:00,59.7,57.7,30.16,South,180,0.0,0.0,93,0.00,BKN,,0.00,WeatherDisplay:10.37,2013-01-14 05:29:00,
2013-01-14 00:34:00,59.5,57.5,30.16,South,180,0.0,0.0,93,0.00,SCT,,0.00,WeatherDisplay:10.37,2013-01-14 05:34:00,
2013-01-14 00:39:00,59.4,57.4,30.16,South,180,0.0,0.0,93,0.00,SCT,,0.00,WeatherDisplay:10.37,2013-01-14 05:39:00,
2013-01-14 00:44:00,59.2,57.2,30.16,South,180,0.0,0.0,93,0.00,SCT,,0.00,WeatherDisplay:10.37,2013-01-14 05:44:00,
2013-01-14 00:49:00,59.2,57.2,30.16,South,180,0.0,0.0,93,0.00,SCT,,0.00,WeatherDisplay:10.37,2013-01-14 05:49:00,
2013-01-14 00:54:00,59.2,57.2,30.16,South,180,0.0,0.0,93,0.00,SCT,,0.00,WeatherDisplay:10.37,2013-01-14 05:54:00,
2013-01-14 00:59:00,59.0,57.0,30.16,South,180,0.0,0.0,93,0.00,SCT,,0.00,WeatherDisplay:10.37,2013-01-14 05:59:00,
2013-01-14 01:04:00,58.8,56.8,30.16,South,180,0.0,0.0,93,0.00,SCT,,0.00,WeatherDisplay:10.37,2013-01-14 06:04:00,
2013-01-14 01:09:00,58.8,56.8,30.16,South,180,0.0,0.0,93,0.00,SCT,,0.00,WeatherDisplay:10.37,2013-01-14 06:09:00,
2013-01-14 01:14:00,59.0,57.3,30.17,NE,45,3.5,3.5,94,0.00,SCT,,0.00,WeatherDisplay:10.37,2013-01-14 06:14:00,
2013-01-14 01:20:00,58.8,57.1,30.17,NE,45,0.0,0.0,94,0.00,FEW,,0.00,WeatherDisplay:10.37,2013-01-14 06:20:00,
2013-01-14 01:25:00,58.6,56.9,30.17,NE,45,0.0,0.0,94,0.00,FEW,,0.00,WeatherDisplay:10.37,2013-01-14 06:25:00,
2013-01-14 01:30:00,58.5,56.8,30.16,NE,45,0.0,0.0,94,0.00,FEW,,0.00,WeatherDisplay:10.37,2013-01-14 06:30:00,
2013-01-14 01:35:00,58.5,56.8,30.16,NE,45,0.0,0.0,94,0.00,FEW,,0.00,WeatherDisplay:10.37,2013-01-14 06:35:00,
2013-01-14 01:40:00,58.5,56.8,30.17,NE,45,0.0,0.0,94,0.00,FEW,,0.00,WeatherDisplay:10.37,2013-01-14 06:40:00,
2013-01-14 01:45:00,58.6,56.9,30.17,NE,45,0.0,0.0,94,0.00,FEW,,0.00,WeatherDisplay:10.37,2013-01-14 06:45:00,
2013-01-14 01:50:00,58.6,56.9,30.17,NE,45,0.0,0.0,94,0.00,FEW,,0.00,WeatherDisplay:10.37,2013-01-14 06:50:00,
2013-01-14 01:55:00,58.5,56.8,30.17,NE,45,0.0,0.0,94,0.00,FEW,,0.00,WeatherDisplay:10.37,2013-01-14 06:55:00,
2013-01-14 02:00:00,58.5,56.8,30.17,NE,45,0.0,0.0,94,0.00,FEW,,0.00,WeatherDisplay:10.37,2013-01-14 07:00:00,
2013-01-14 02:05:00,58.8,57.0,30.18,NE,45,0.0,2.0,94,0.00,FEW,,0.00,WeatherDisplay:10.37,2013-01-14 07:05:00,
2013-01-14 02:10:00,58.6,56.9,30.18,NE,45,0.0,0.0,94,0.00,FEW,,0.00,WeatherDisplay:10.37,2013-01-14 07:10:00,
2013-01-14 02:15:00,58.6,56.9,30.17,NE,45,0.0,2.0,94,0.00,FEW,,0.00,WeatherDisplay:10.37,2013-01-14 07:15:00,
2013-01-14 02:20:00,58.2,56.5,30.17,NE,45,0.0,0.0,94,0.00,FEW,,0.00,WeatherDisplay:10.37,2013-01-14 07:20:00,
2013-01-14 02:25:00,58.1,56.4,30.17,NE,45,0.0,0.0,94,0.00,FEW,,0.00,WeatherDisplay:10.37,2013-01-14 07:25:00,
2013-01-14 02:30:00,57.9,56.2,30.18,NE,45,0.0,0.0,94,0.00,FEW,,0.00,WeatherDisplay:10.37,2013-01-14 07:30:00,
2013-01-14 02:35:00,57.7,56.0,30.18,NE,45,0.0,0.0,94,0.00,CLR,,0.00,WeatherDisplay:10.37,2013-01-14 07:35:00,
2013-01-14 02:40:00,57.6,55.9,30.19,NE,45,0.0,0.0,94,0.00,CLR,,0.00,WeatherDisplay:10.37,2013-01-14 07:40:00,
2013-01-14 02:45:00,58.1,56.4,30.19,SE,133,3.0,6.0,94,0.00,CLR,,0.00,WeatherDisplay:10.37,2013-01-14 07:45:00,
2013-01-14 02:50:00,57.6,55.9,30.19,SSW,202,2.6,0.0,94,0.00,CLR,,0.00,WeatherDisplay:10.37,2013-01-14 07:50:00,
2013-01-14 02:55:00,57.6,55.9,30.19,SSW,202,0.0,4.0,94,0.00,CLR,,0.00,WeatherDisplay:10.37,2013-01-14 07:55:00,
2013-01-14 03:00:00,57.6,55.9,30.19,SSW,193,1.0,3.0,94,0.00,CLR,,0.00,WeatherDisplay:10.37,2013-01-14 08:00:00,
2013-01-14 03:05:00,57.4,55.7,30.18,South,180,0.0,3.0,94,0.00,CLR,,0.00,WeatherDisplay:10.37,2013-01-14 08:05:00,
2013-01-14 03:10:00,57.5,55.8,30.18,South,183,0.0,4.0,94,0.00,CLR,,0.00,WeatherDisplay:10.37,2013-01-14 08:10:00,
2013-01-14 03:15:00,57.7,56.3,30.18,SSW,194,1.0,4.0,95,0.00,CLR,,0.00,WeatherDisplay:10.37,2013-01-14 08:15:00,
2013-01-14 03:20:00,57.6,56.2,30.18,SSW,202,2.0,4.0,95,0.00,CLR,,0.00,WeatherDisplay:10.37,2013-01-14 08:20:00,
2013-01-14 03:25:00,57.8,56.3,30.17,SSW,202,3.0,5.0,95,0.00,CLR,,0.00,WeatherDisplay:10.37,2013-01-14 08:25:00,
2013-01-14 03:30:00,57.7,56.3,30.17,SSW,202,3.0,5.0,95,0.00,CLR,,0.00,WeatherDisplay:10.37,2013-01-14 08:30:00,
2013-01-14 03:35:00,57.7,56.3,30.17,SSW,202,3.5,3.5,95,0.00,CLR,,0.00,WeatherDisplay:10.37,2013-01-14 08:35:00,
2013-01-14 03:40:00,57.6,56.2,30.16,SSW,202,2.0,4.0,95,0.00,CLR,,0.00,WeatherDisplay:10.37,2013-01-14 08:40:00,
2013-01-14 03:45:00,57.6,56.2,30.16,SSW,202,3.0,5.0,95,0.00,CLR,,0.00,WeatherDisplay:10.37,2013-01-14 08:45:00,
2013-01-14 03:50:00,57.7,56.3,30.15,SSW,202,2.3,0.0,95,0.00,CLR,,0.00,WeatherDisplay:10.37,2013-01-14 08:50:00,
2013-01-14 03:55:00,57.6,56.2,30.15,SSW,202,0.0,0.0,95,0.00,CLR,,0.00,WeatherDisplay:10.37,2013-01-14 08:55:00,
2013-01-14 04:00:00,57.4,56.0,30.15,SSW,202,0.0,0.0,95,0.00,CLR,,0.00,WeatherDisplay:10.37,2013-01-14 09:00:00,
2013-01-14 04:05:00,57.2,55.8,30.15,South,174,0.0,4.0,95,0.00,CLR,,0.00,WeatherDisplay:10.37,2013-01-14 09:05:00,
2013-01-14 04:10:00,57.3,55.9,30.15,SE,140,1.0,4.0,95,0.00,CLR,,0.00,WeatherDisplay:10.37,2013-01-14 09:10:00,
2013-01-14 04:15:00,56.8,55.4,30.15,SE,135,0.0,0.0,95,0.00,CLR,,0.00,WeatherDisplay:10.37,2013-01-14 09:15:00,
2013-01-14 04:20:00,56.8,55.4,30.15,SE,135,0.0,0.0,95,0.00,CLR,,0.00,WeatherDisplay:10.37,2013-01-14 09:20:00,
2013-01-14 04:25:00,56.8,55.4,30.15,SE,135,0.0,0.0,95,0.00,CLR,,0.00,WeatherDisplay:10.37,2013-01-14 09:25:00,
2013-01-14 04:30:00,57.0,55.6,30.15,South,180,4.6,4.6,95,0.00,CLR,,0.00,WeatherDisplay:10.37,2013-01-14 09:30:00,
2013-01-14 04:35:00,57.0,55.6,30.15,South,180,3.5,3.5,95,0.00,CLR,,0.00,WeatherDisplay:10.37,2013-01-14 09:35:00,
2013-01-14 04:40:00,57.2,55.8,30.14,SW,225,3.7,3.7,95,0.00,CLR,,0.00,WeatherDisplay:10.37,2013-01-14 09:40:00,
2013-01-14 04:45:00,57.2,55.8,30.14,SW,225,4.6,4.6,95,0.00,CLR,,0.00,WeatherDisplay:10.37,2013-01-14 09:45:00,
2013-01-14 04:50:00,57.4,56.0,30.14,SW,225,4.6,4.6,95,0.00,CLR,,0.00,WeatherDisplay:10.37,2013-01-14 09:50:00,
2013-01-14 04:55:00,57.2,55.8,30.14,SW,225,3.7,3.7,95,0.00,CLR,,0.00,WeatherDisplay:10.37,2013-01-14 09:55:00,
2013-01-14 05:00:00,57.2,55.8,30.14,SW,225,2.6,2.6,95,0.00,CLR,,0.00,WeatherDisplay:10.37,2013-01-14 10:00:00,
2013-01-14 05:05:00,57.0,55.6,30.13,SW,225,0.0,0.0,95,0.00,CLR,,0.00,WeatherDisplay:10.37,2013-01-14 10:05:00,
2013-01-14 05:10:00,56.8,55.4,30.13,SW,225,0.0,0.0,95,0.00,CLR,,0.00,WeatherDisplay:10.37,2013-01-14 10:10:00,
2013-01-14 05:16:00,56.5,55.1,30.13,SW,225,0.0,0.0,95,0.00,CLR,,0.00,WeatherDisplay:10.37,2013-01-14 10:16:00,
2013-01-14 05:21:00,56.5,55.1,30.13,SW,225,0.0,0.0,95,0.00,CLR,,0.00,WeatherDisplay:10.37,2013-01-14 10:21:00,
2013-01-14 05:26:00,56.3,54.9,30.13,SW,225,2.6,2.6,95,0.00,CLR,,0.00,WeatherDisplay:10.37,2013-01-14 10:26:00,
2013-01-14 05:31:00,56.3,54.9,30.13,SW,225,0.0,0.0,95,0.00,CLR,,0.00,WeatherDisplay:10.37,2013-01-14 10:31:00,
2013-01-14 05:36:00,56.3,54.9,30.13,SW,225,0.0,0.0,95,0.00,CLR,,0.00,WeatherDisplay:10.37,2013-01-14 10:36:00,
2013-01-14 05:41:00,56.1,54.7,30.14,SW,225,0.0,0.0,95,0.00,CLR,,0.00,WeatherDisplay:10.37,2013-01-14 10:41:00,
2013-01-14 05:46:00,56.1,54.7,30.14,SW,225,2.3,0.0,95,0.00,CLR,,0.00,WeatherDisplay:10.37,2013-01-14 10:46:00,
2013-01-14 05:51:00,55.9,54.5,30.14,SW,225,2.6,2.6,95,0.00,CLR,,0.00,WeatherDisplay:10.37,2013-01-14 10:51:00,
2013-01-14 05:56:00,56.1,54.7,30.14,SW,225,3.7,3.7,95,0.00,CLR,,0.00,WeatherDisplay:10.37,2013-01-14 10:56:00,
2013-01-14 06:01:00,56.5,55.1,30.15,SW,225,4.9,4.9,95,0.00,CLR,,0.00,WeatherDisplay:10.37,2013-01-14 11:01:00,
2013-01-14 06:07:00,56.3,54.9,30.15,SW,225,0.0,0.0,95,0.00,CLR,,0.00,WeatherDisplay:10.37,2013-01-14 11:07:00,
2013-01-14 06:12:00,56.3,54.9,30.15,SW,225,2.3,2.3,95,0.00,CLR,,0.00,WeatherDisplay:10.37,2013-01-14 11:12:00,
2013-01-14 06:17:00,56.5,55.1,30.16,West,270,0.0,0.0,95,0.00,CLR,,0.00,WeatherDisplay:10.37,2013-01-14 11:17:00,
2013-01-14 06:22:00,56.7,55.3,30.16,NE,45,2.5,2.5,95,0.00,CLR,,0.00,WeatherDisplay:10.37,2013-01-14 11:22:00,
2013-01-14 06:27:00,57.4,56.0,30.16,NE,45,1.1,1.1,95,0.00,CLR,,0.00,WeatherDisplay:10.37,2013-01-14 11:27:00,
2013-01-14 06:32:00,57.6,56.2,30.16,NE,45,0.0,0.0,95,0.00,CLR,,0.00,WeatherDisplay:10.37,2013-01-14 11:32:00,
2013-01-14 06:37:00,57.4,56.0,30.16,NE,45,0.0,0.0,95,0.00,CLR,,0.00,WeatherDisplay:10.37,2013-01-14 11:37:00,
2013-01-14 06:42:00,57.2,55.8,30.16,NE,45,0.0,0.0,95,0.00,CLR,,0.00,WeatherDisplay:10.37,2013-01-14 11:42:00,
2013-01-14 06:47:00,57.7,56.3,30.16,NNW,338,2.3,2.3,95,0.00,CLR,,0.00,WeatherDisplay:10.37,2013-01-14 11:47:00,
2013-01-14 06:52:00,57.6,56.2,30.17,NNW,338,0.0,0.0,95,0.00,CLR,,0.00,WeatherDisplay:10.37,2013-01-14 11:52:00,
2013-01-14 06:58:00,57.6,56.2,30.17,NNW,338,0.0,0.0,95,0.00,CLR,,0.00,WeatherDisplay:10.37,2013-01-14 11:58:00,
2013-01-14 07:03:00,57.4,56.0,30.17,NNW,338,0.0,0.0,95,0.00,CLR,,0.00,WeatherDisplay:10.37,2013-01-14 12:03:00,
2013-01-14 07:08:00,57.4,56.0,30.17,NNE,22,1.1,1.1,95,0.00,CLR,,0.00,WeatherDisplay:10.37,2013-01-14 12:08:00,
2013-01-14 07:13:00,57.0,55.6,30.18,NNE,22,0.0,0.0,95,0.00,CLR,,0.00,WeatherDisplay:10.37,2013-01-14 12:13:00,
2013-01-14 07:18:00,57.4,56.3,30.18,NNE,22,0.0,0.0,96,0.00,CLR,,0.00,WeatherDisplay:10.37,2013-01-14 12:18:00,
2013-01-14 07:23:00,57.6,56.5,30.18,NNE,22,1.1,1.1,96,0.00,CLR,,0.00,WeatherDisplay:10.37,2013-01-14 12:23:00,
2013-01-14 07:28:00,57.4,56.3,30.18,NNE,22,0.0,0.0,96,0.00,CLR,,0.00,WeatherDisplay:10.37,2013-01-14 12:28:00,
2013-01-14 07:33:00,57.2,56.1,30.18,NNE,22,1.1,0.0,96,0.00,CLR,,0.00,WeatherDisplay:10.37,2013-01-14 12:33:00,
2013-01-14 07:38:00,57.0,55.9,30.19,NNE,22,0.0,0.0,96,0.00,CLR,,0.00,WeatherDisplay:10.37,2013-01-14 12:38:00,
2013-01-14 07:43:00,56.8,55.7,30.19,NNE,22,0.0,0.0,96,0.00,CLR,,0.00,WeatherDisplay:10.37,2013-01-14 12:43:00,
2013-01-14 07:49:00,56.8,55.7,30.19,NNE,22,0.0,0.0,96,0.00,CLR,,0.00,WeatherDisplay:10.37,2013-01-14 12:49:00,
2013-01-14 07:54:00,56.8,55.7,30.19,NNE,22,0.0,0.0,96,0.00,CLR,,0.00,WeatherDisplay:10.37,2013-01-14 12:54:00,
2013-01-14 07:59:00,56.8,55.7,30.19,NNE,22,0.0,0.0,96,0.00,CLR,,0.00,WeatherDisplay:10.37,2013-01-14 12:59:00,
2013-01-14 08:04:00,57.2,56.1,30.19,NNE,22,0.0,0.0,96,0.00,CLR,,0.00,WeatherDisplay:10.37,2013-01-14 13:04:00,
2013-01-14 08:09:00,57.4,56.3,30.19,NNE,22,0.0,0.0,96,0.00,CLR,,0.00,WeatherDisplay:10.37,2013-01-14 13:09:00,
2013-01-14 08:14:00,58.1,57.0,30.19,NNE,22,0.0,0.0,96,0.00,CLR,,0.00,WeatherDisplay:10.37,2013-01-14 13:14:00,
2013-01-14 08:19:00,58.8,57.7,30.19,NNE,22,0.0,0.0,96,0.00,CLR,,0.00,WeatherDisplay:10.37,2013-01-14 13:19:00,
2013-01-14 08:24:00,59.5,58.4,30.19,NNE,22,0.0,0.0,96,0.00,CLR,,0.00,WeatherDisplay:10.37,2013-01-14 13:24:00,
2013-01-14 08:29:00,60.4,59.3,30.20,NNE,22,0.0,0.0,96,0.00,CLR,,0.00,WeatherDisplay:10.37,2013-01-14 13:29:00,
2013-01-14 08:34:00,60.4,59.3,30.20,WNW,292,3.5,3.5,96,0.00,CLR,,0.00,WeatherDisplay:10.37,2013-01-14 13:34:00,
2013-01-14 08:40:00,60.6,59.5,30.20,WNW,292,1.1,0.0,96,0.00,CLR,,0.00,WeatherDisplay:10.37,2013-01-14 13:40:00,
2013-01-14 08:45:00,61.3,59.8,30.20,WNW,292,0.0,4.0,95,0.00,CLR,,0.00,WeatherDisplay:10.37,2013-01-14 13:45:00,
2013-01-14 08:50:00,61.2,59.5,30.21,WNW,292,0.0,4.0,94,0.00,CLR,,0.00,WeatherDisplay:10.37,2013-01-14 13:50:00,
2013-01-14 08:55:00,61.9,59.9,30.21,WNW,292,2.5,2.5,93,0.00,CLR,,0.00,WeatherDisplay:10.37,2013-01-14 13:55:00,
2013-01-14 09:00:00,62.2,60.2,30.21,WNW,292,2.0,2.0,93,0.00,CLR,,0.00,WeatherDisplay:10.37,2013-01-14 14:00:00,
2013-01-14 09:05:00,62.9,60.9,30.21,SSW,209,1.0,5.0,93,0.00,CLR,,0.00,WeatherDisplay:10.37,2013-01-14 14:05:00,
2013-01-14 09:10:00,63.9,61.5,30.21,South,188,3.0,4.0,92,0.00,CLR,,0.00,WeatherDisplay:10.37,2013-01-14 14:10:00,
2013-01-14 09:15:00,64.1,61.1,30.21,SSW,202,2.0,6.0,90,0.00,CLR,,0.00,WeatherDisplay:10.37,2013-01-14 14:15:00,
2013-01-14 09:20:00,64.5,61.8,30.21,SSW,207,3.0,6.0,91,0.00,CLR,,0.00,WeatherDisplay:10.37,2013-01-14 14:20:00,
2013-01-14 09:25:00,64.7,61.7,30.21,SSW,208,2.0,4.0,90,0.00,CLR,,0.00,WeatherDisplay:10.37,2013-01-14 14:25:00,
2013-01-14 09:30:00,66.1,62.4,30.21,SW,233,0.0,5.0,88,0.00,CLR,,0.00,WeatherDisplay:10.37,2013-01-14 14:30:00,
2013-01-14 09:35:00,66.3,63.0,30.21,West,269,1.0,3.0,89,0.00,CLR,,0.00,WeatherDisplay:10.37,2013-01-14 14:35:00,
2013-01-14 09:40:00,66.6,62.6,30.21,WSW,241,6.0,6.0,87,0.00,CLR,,0.00,WeatherDisplay:10.37,2013-01-14 14:40:00,
2013-01-14 09:45:00,66.7,62.7,30.21,SW,226,3.0,6.0,87,0.00,CLR,,0.00,WeatherDisplay:10.37,2013-01-14 14:45:00,
2013-01-14 09:50:00,67.5,63.2,30.22,West,270,3.7,3.7,86,0.00,CLR,,0.00,WeatherDisplay:10.37,2013-01-14 14:50:00,
2013-01-14 09:55:00,67.5,63.5,30.22,SW,225,5.8,5.8,87,0.00,CLR,,0.00,WeatherDisplay:10.37,2013-01-14 14:55:00,
2013-01-14 10:00:00,67.8,63.1,30.22,SW,225,4.6,4.6,85,0.00,CLR,,0.00,WeatherDisplay:10.37,2013-01-14 15:00:00,
2013-01-14 10:05:00,68.7,63.7,30.21,SSW,202,5.8,5.8,84,0.00,CLR,,0.00,WeatherDisplay:10.37,2013-01-14 15:05:00,
2013-01-14 10:10:00,68.4,63.0,30.21,WSW,248,9.2,9.2,83,0.00,CLR,,0.00,WeatherDisplay:10.37,2013-01-14 15:10:00,
2013-01-14 10:15:00,68.5,63.1,30.21,SW,225,5.8,5.8,83,0.00,CLR,,0.00,WeatherDisplay:10.37,2013-01-14 15:15:00,
2013-01-14 10:20:00,68.7,63.3,30.21,WSW,248,5.8,5.8,83,0.00,CLR,,0.00,WeatherDisplay:10.37,2013-01-14 15:20:00,
2013-01-14 10:25:00,68.5,62.8,30.20,WSW,248,6.9,6.9,82,0.00,CLR,,0.00,WeatherDisplay:10.37,2013-01-14 15:25:00,
2013-01-14 10:30:00,69.3,63.2,30.20,WSW,248,4.9,5.2,81,0.00,CLR,,0.00,WeatherDisplay:10.37,2013-01-14 15:30:00,
2013-01-14 10:35:00,69.3,63.2,30.20,WSW,248,7.2,7.2,81,0.00,CLR,,0.00,WeatherDisplay:10.37,2013-01-14 15:35:00,
2013-01-14 10:40:00,69.3,63.2,30.20,SSE,158,4.6,4.7,81,0.00,CLR,,0.00,WeatherDisplay:10.37,2013-01-14 15:40:00,
2013-01-14 10:45:00,70.2,63.7,30.20,SW,225,6.0,6.0,80,0.00,CLR,,0.00,WeatherDisplay:10.37,2013-01-14 15:45:00,
2013-01-14 10:51:00,70.9,63.3,30.20,WSW,248,6.9,6.9,77,0.00,CLR,,0.00,WeatherDisplay:10.37,2013-01-14 15:51:00,
2013-01-14 10:56:00,70.2,63.4,30.20,WSW,248,4.9,4.9,79,0.00,CLR,,0.00,WeatherDisplay:10.37,2013-01-14 15:56:00,
2013-01-14 11:01:00,70.2,63.4,30.20,NW,315,2.5,2.5,79,0.00,CLR,,0.00,WeatherDisplay:10.37,2013-01-14 16:01:00,
2013-01-14 11:06:00,70.5,63.3,30.20,WSW,248,6.9,6.9,78,0.00,CLR,,0.00,WeatherDisplay:10.37,2013-01-14 16:06:00,
2013-01-14 11:11:00,71.1,63.5,30.20,WSW,248,8.3,8.3,77,0.00,CLR,,0.00,WeatherDisplay:10.37,2013-01-14 16:11:00,
2013-01-14 11:16:00,72.0,63.3,30.19,West,270,9.5,9.5,74,0.00,CLR,,0.00,WeatherDisplay:10.37,2013-01-14 16:16:00,
2013-01-14 11:21:00,72.1,63.0,30.19,NW,315,9.2,9.2,73,0.00,CLR,,0.00,WeatherDisplay:10.37,2013-01-14 16:21:00,
2013-01-14 11:26:00,72.3,63.5,30.19,South,180,6.9,6.9,74,0.00,CLR,,0.00,WeatherDisplay:10.37,2013-01-14 16:26:00,
2013-01-14 11:31:00,72.7,63.5,30.19,SSW,202,5.8,5.8,73,0.00,CLR,,0.00,WeatherDisplay:10.37,2013-01-14 16:31:00,
2013-01-14 11:36:00,72.5,63.4,30.19,SSW,202,10.7,10.7,73,0.00,CLR,,0.00,WeatherDisplay:10.37,2013-01-14 16:36:00,
2013-01-14 11:42:00,71.2,62.9,30.18,West,270,6.9,6.9,75,0.00,CLR,,0.00,WeatherDisplay:10.37,2013-01-14 16:42:00,
2013-01-14 11:47:00,71.4,63.1,30.18,WSW,248,6.9,6.9,75,0.00,CLR,,0.00,WeatherDisplay:10.37,2013-01-14 16:47:00,
2013-01-14 11:52:00,71.4,63.4,30.17,SW,225,4.6,4.6,76,0.00,CLR,,0.00,WeatherDisplay:10.37,2013-01-14 16:52:00,
2013-01-14 11:57:00,70.7,62.8,30.17,South,180,4.6,4.6,76,0.00,CLR,,0.00,WeatherDisplay:10.37,2013-01-14 16:57:00,
2013-01-14 12:02:00,71.2,62.9,30.17,West,270,6.0,6.3,75,0.00,CLR,,0.00,WeatherDisplay:10.37,2013-01-14 17:02:00,
2013-01-14 12:07:00,71.1,63.1,30.17,SW,225,8.1,8.1,76,0.00,CLR,,0.00,WeatherDisplay:10.37,2013-01-14 17:07:00,
2013-01-14 12:12:00,72.9,63.3,30.17,West,270,8.1,8.1,72,0.00,CLR,,0.00,WeatherDisplay:10.37,2013-01-14 17:12:00,
2013-01-14 12:17:00,72.3,62.8,30.16,SSW,202,9.2,9.2,72,0.00,FEW,,0.00,WeatherDisplay:10.37,2013-01-14 17:17:00,
2013-01-14 12:22:00,70.7,62.8,30.16,WSW,248,5.8,5.8,76,0.00,FEW,,0.00,WeatherDisplay:10.37,2013-01-14 17:22:00,
2013-01-14 12:27:00,70.3,62.4,30.17,WSW,248,4.9,4.9,76,0.00,FEW,,0.00,WeatherDisplay:10.37,2013-01-14 17:27:00,
2013-01-14 12:33:00,71.1,62.4,30.17,SSW,202,6.9,6.9,74,0.00,FEW,,0.00,WeatherDisplay:10.37,2013-01-14 17:33:00,
2013-01-14 12:38:00,70.9,62.6,30.16,West,270,5.8,5.8,75,0.00,FEW,,0.00,WeatherDisplay:10.37,2013-01-14 17:38:00,
2013-01-14 12:43:00,71.6,62.9,30.16,West,270,6.9,6.9,74,0.00,FEW,,0.00,WeatherDisplay:10.37,2013-01-14 17:43:00,
2013-01-14 12:48:00,72.0,63.6,30.16,SW,225,4.6,4.6,75,0.00,FEW,,0.00,WeatherDisplay:10.37,2013-01-14 17:48:00,
2013-01-14 12:53:00,72.3,63.5,30.15,SSW,202,6.0,6.0,74,0.00,FEW,,0.00,WeatherDisplay:10.37,2013-01-14 17:53:00,
2013-01-14 12:58:00,72.7,63.5,30.15,SSW,202,7.2,7.2,73,0.00,FEW,,0.00,WeatherDisplay:10.37,2013-01-14 17:58:00,
2013-01-14 13:03:00,72.3,63.2,30.15,WNW,292,5.8,5.8,73,0.00,FEW,,0.00,WeatherDisplay:10.37,2013-01-14 18:03:00,
2013-01-14 13:08:00,72.7,63.1,30.15,South,180,6.9,6.9,72,0.00,FEW,,0.00,WeatherDisplay:10.37,2013-01-14 18:08:00,
2013-01-14 13:13:00,72.5,63.0,30.14,SW,225,8.3,8.3,72,0.00,FEW,,0.00,WeatherDisplay:10.37,2013-01-14 18:13:00,
2013-01-14 13:18:00,72.5,63.4,30.14,SW,225,7.2,7.2,73,0.00,FEW,,0.00,WeatherDisplay:10.37,2013-01-14 18:18:00,
2013-01-14 13:24:00,71.8,63.1,30.14,SW,225,6.9,6.9,74,0.00,FEW,,0.00,WeatherDisplay:10.37,2013-01-14 18:24:00,
2013-01-14 13:29:00,71.6,62.9,30.14,SE,135,6.0,6.0,74,0.00,FEW,,0.00,WeatherDisplay:10.37,2013-01-14 18:29:00,
2013-01-14 13:34:00,70.9,62.2,30.14,WSW,248,8.1,8.1,74,0.00,CLR,,0.00,WeatherDisplay:10.37,2013-01-14 18:34:00,
2013-01-14 13:39:00,70.7,62.4,30.14,SSW,202,5.8,5.8,75,0.00,CLR,,0.00,WeatherDisplay:10.37,2013-01-14 18:39:00,
2013-01-14 13:44:00,70.7,62.0,30.14,West,270,6.0,6.0,74,0.00,CLR,,0.00,WeatherDisplay:10.37,2013-01-14 18:44:00,
2013-01-14 13:49:00,71.6,62.5,30.14,WSW,248,8.1,8.1,73,0.00,CLR,,0.00,WeatherDisplay:10.37,2013-01-14 18:49:00,
2013-01-14 13:54:00,70.7,62.0,30.15,West,270,7.2,7.2,74,0.00,CLR,,0.00,WeatherDisplay:10.37,2013-01-14 18:54:00,
2013-01-14 13:59:00,70.9,62.2,30.15,WSW,248,4.9,4.9,74,0.00,CLR,,0.00,WeatherDisplay:10.37,2013-01-14 18:59:00,
2013-01-14 14:04:00,70.9,62.2,30.15,WSW,248,8.1,8.1,74,0.00,CLR,,0.00,WeatherDisplay:10.37,2013-01-14 19:04:00,
2013-01-14 14:09:00,71.1,62.4,30.15,SE,135,6.9,6.9,74,0.00,CLR,,0.00,WeatherDisplay:10.37,2013-01-14 19:09:00,
2013-01-14 14:15:00,70.9,62.2,30.15,West,270,9.2,9.2,74,0.00,CLR,,0.00,WeatherDisplay:10.37,2013-01-14 19:15:00,
2013-01-14 14:20:00,70.9,62.2,30.15,SW,225,6.0,6.0,74,0.00,CLR,,0.00,WeatherDisplay:10.37,2013-01-14 19:20:00,
2013-01-14 14:25:00,71.4,62.3,30.15,West,260,5.0,6.0,73,0.00,CLR,,0.00,WeatherDisplay:10.37,2013-01-14 19:25:00,
2013-01-14 14:30:00,70.3,62.0,30.15,SW,225,6.0,6.0,75,0.00,CLR,,0.00,WeatherDisplay:10.37,2013-01-14 19:30:00,
2013-01-14 14:35:00,70.6,62.2,30.15,SSW,212,5.0,6.0,75,0.00,CLR,,0.00,WeatherDisplay:10.37,2013-01-14 19:35:00,
2013-01-14 14:40:00,70.1,61.8,30.15,SW,227,5.0,8.0,75,0.00,CLR,,0.00,WeatherDisplay:10.37,2013-01-14 19:40:00,
2013-01-14 14:45:00,69.3,61.8,30.15,SW,225,12.7,12.7,77,0.00,CLR,,0.00,WeatherDisplay:10.37,2013-01-14 19:45:00,
2013-01-14 14:50:00,68.5,61.4,30.15,WSW,248,4.6,4.7,78,0.00,CLR,,0.00,WeatherDisplay:10.37,2013-01-14 19:50:00,
2013-01-14 14:55:00,69.2,62.0,30.15,WSW,245,2.0,6.0,78,0.00,CLR,,0.00,WeatherDisplay:10.37,2013-01-14 19:55:00,
2013-01-14 15:01:00,69.1,61.9,30.15,ENE,68,4.6,4.6,78,0.00,CLR,,0.00,WeatherDisplay:10.37,2013-01-14 20:01:00,
2013-01-14 15:06:00,71.2,62.5,30.16,SSW,202,10.4,10.4,74,0.00,CLR,,0.00,WeatherDisplay:10.37,2013-01-14 20:06:00,
2013-01-14 15:11:00,71.8,62.7,30.16,SW,225,3.5,3.5,73,0.00,CLR,,0.00,WeatherDisplay:10.37,2013-01-14 20:11:00,
2013-01-14 15:16:00,71.1,62.4,30.16,West,270,4.6,4.6,74,0.00,CLR,,0.00,WeatherDisplay:10.37,2013-01-14 20:16:00,
2013-01-14 15:21:00,71.2,62.5,30.16,WNW,292,4.6,4.6,74,0.00,CLR,,0.00,WeatherDisplay:10.37,2013-01-14 20:21:00,
2013-01-14 15:26:00,70.7,62.0,30.16,WSW,248,8.1,8.1,74,0.00,CLR,,0.00,WeatherDisplay:10.37,2013-01-14 20:26:00,
2013-01-14 15:31:00,70.7,62.0,30.16,West,270,6.0,6.4,74,0.00,CLR,,0.00,WeatherDisplay:10.37,2013-01-14 20:31:00,
2013-01-14 15:36:00,70.3,62.0,30.16,SW,225,6.0,6.0,75,0.00,CLR,,0.00,WeatherDisplay:10.37,2013-01-14 20:36:00,
2013-01-14 15:41:00,70.2,61.9,30.16,SW,225,6.0,6.0,75,0.00,CLR,,0.00,WeatherDisplay:10.37,2013-01-14 20:41:00,
2013-01-14 15:46:00,69.6,61.7,30.16,West,270,6.0,6.0,76,0.00,CLR,,0.00,WeatherDisplay:10.37,2013-01-14 20:46:00,
2013-01-14 15:51:00,68.9,61.4,30.17,SW,225,4.9,4.9,77,0.00,CLR,,0.00,WeatherDisplay:10.37,2013-01-14 20:51:00,
2013-01-14 15:57:00,68.7,61.2,30.17,SW,225,3.7,3.7,77,0.00,CLR,,0.00,WeatherDisplay:10.37,2013-01-14 20:57:00,
2013-01-14 16:02:00,68.2,61.1,30.17,WSW,248,4.9,4.9,78,0.00,CLR,,0.00,WeatherDisplay:10.37,2013-01-14 21:02:00,
2013-01-14 16:07:00,67.8,61.0,30.17,WSW,248,4.6,4.6,79,0.00,CLR,,0.00,WeatherDisplay:10.37,2013-01-14 21:07:00,
2013-01-14 16:12:00,67.5,61.1,30.17,SW,225,4.9,4.9,80,0.00,CLR,,0.00,WeatherDisplay:10.37,2013-01-14 21:12:00,
2013-01-14 16:17:00,67.5,61.1,30.16,WSW,248,4.6,4.6,80,0.00,CLR,,0.00,WeatherDisplay:10.37,2013-01-14 21:17:00,
2013-01-14 16:22:00,67.3,60.9,30.16,WSW,248,3.7,3.7,80,0.00,CLR,,0.00,WeatherDisplay:10.37,2013-01-14 21:22:00,
2013-01-14 16:27:00,66.9,60.9,30.17,SW,225,4.6,4.6,81,0.00,CLR,,0.00,WeatherDisplay:10.37,2013-01-14 21:27:00,
2013-01-14 16:32:00,66.7,60.7,30.17,WSW,248,3.7,4.0,81,0.00,CLR,,0.00,WeatherDisplay:10.37,2013-01-14 21:32:00,
2013-01-14 16:37:00,66.4,60.7,30.17,WSW,248,4.9,4.9,82,0.00,CLR,,0.00,WeatherDisplay:10.37,2013-01-14 21:37:00,
2013-01-14 16:42:00,66.0,60.7,30.17,SSW,202,3.7,4.1,83,0.00,CLR,,0.00,WeatherDisplay:10.37,2013-01-14 21:42:00,
2013-01-14 16:48:00,65.7,60.7,30.17,SW,225,10.4,10.4,84,0.00,CLR,,0.00,WeatherDisplay:10.37,2013-01-14 21:48:00,
2013-01-14 16:53:00,65.1,60.5,30.17,South,180,7.2,7.2,85,0.00,CLR,,0.00,WeatherDisplay:10.37,2013-01-14 21:53:00,
2013-01-14 16:58:00,64.9,60.3,30.17,SW,225,4.9,4.9,85,0.00,CLR,,0.00,WeatherDisplay:10.37,2013-01-14 21:58:00,
2013-01-14 17:03:00,64.8,60.5,30.17,WSW,248,4.6,4.6,86,0.00,CLR,,0.00,WeatherDisplay:10.37,2013-01-14 22:03:00,
2013-01-14 17:08:00,64.6,60.3,30.17,SSW,202,4.6,4.6,86,0.00,CLR,,0.00,WeatherDisplay:10.37,2013-01-14 22:08:00,
2013-01-14 17:13:00,64.4,60.1,30.17,SSW,202,3.5,3.5,86,0.00,CLR,,0.00,WeatherDisplay:10.37,2013-01-14 22:13:00,
2013-01-14 17:18:00,64.0,60.1,30.17,SW,225,3.7,3.7,87,0.00,FEW,,0.00,WeatherDisplay:10.37,2013-01-14 22:18:00,
2013-01-14 17:23:00,63.9,60.3,30.17,SW,225,3.5,3.5,88,0.00,FEW,,0.00,WeatherDisplay:10.37,2013-01-14 22:23:00,
2013-01-14 17:28:00,63.7,60.1,30.17,SW,225,4.6,4.6,88,0.00,FEW,,0.00,WeatherDisplay:10.37,2013-01-14 22:28:00,
2013-01-14 17:33:00,63.5,60.2,30.17,SW,225,3.7,3.7,89,0.00,FEW,,0.00,WeatherDisplay:10.37,2013-01-14 22:33:00,
2013-01-14 17:39:00,63.3,60.0,30.18,SW,225,4.9,4.9,89,0.00,FEW,,0.00,WeatherDisplay:10.37,2013-01-14 22:39:00,
2013-01-14 17:44:00,63.1,59.8,30.18,SW,225,4.9,4.9,89,0.00,FEW,,0.00,WeatherDisplay:10.37,2013-01-14 22:44:00,
2013-01-14 17:49:00,63.0,59.7,30.18,SW,225,3.5,3.5,89,0.00,FEW,,0.00,WeatherDisplay:10.37,2013-01-14 22:49:00,
2013-01-14 17:54:00,62.8,59.8,30.18,WNW,292,5.8,5.8,90,0.00,FEW,,0.00,WeatherDisplay:10.37,2013-01-14 22:54:00,
2013-01-14 17:59:00,62.6,59.6,30.18,SW,225,4.6,4.6,90,0.00,FEW,,0.00,WeatherDisplay:10.37,2013-01-14 22:59:00,
2013-01-14 18:04:00,62.6,59.9,30.19,SW,225,4.9,4.9,91,0.00,FEW,,0.00,WeatherDisplay:10.37,2013-01-14 23:04:00,
2013-01-14 18:09:00,62.4,59.7,30.19,SW,225,3.7,3.7,91,0.00,FEW,,0.00,WeatherDisplay:10.37,2013-01-14 23:09:00,
2013-01-14 18:14:00,62.4,59.7,30.19,SW,225,4.6,4.6,91,0.00,FEW,,0.00,WeatherDisplay:10.37,2013-01-14 23:14:00,
2013-01-14 18:19:00,62.2,59.8,30.19,WSW,248,5.8,5.8,92,0.00,CLR,,0.00,WeatherDisplay:10.37,2013-01-14 23:19:00,
2013-01-14 18:24:00,62.1,59.7,30.19,SW,225,4.6,4.6,92,0.00,CLR,,0.00,WeatherDisplay:10.37,2013-01-14 23:24:00,
2013-01-14 18:30:00,62.1,59.7,30.18,WSW,242,5.0,6.0,92,0.00,CLR,,0.00,WeatherDisplay:10.37,2013-01-14 23:30:00,
2013-01-14 18:35:00,61.9,59.5,30.18,WSW,249,5.0,5.0,92,0.00,CLR,,0.00,WeatherDisplay:10.37,2013-01-14 23:35:00,
2013-01-14 20:59:00,60.8,59.1,30.15,WSW,247,0.0,-999.0,94,-99.99,,,0.00,Acu-Link.com,2013-01-15 01:59:00,
2013-01-14 21:14:00,60.8,59.1,30.15,SSW,202,1.7,-999.0,94,-99.99,,,0.00,Acu-Link.com,2013-01-15 02:14:00,
2013-01-14 21:29:00,61.0,59.3,30.14,WSW,247,2.2,-999.0,94,-99.99,,,0.00,Acu-Link.com,2013-01-15 02:29:00,
2013-01-14 21:45:00,61.0,59.3,30.14,WSW,247,1.7,-999.0,94,-99.99,,,0.00,Acu-Link.com,2013-01-15 02:45:00,
2013-01-14 22:00:00,60.4,58.7,30.14,WSW,247,0.0,-999.0,94,-99.99,,,0.00,Acu-Link.com,2013-01-15 03:00:00,
2013-01-14 22:16:00,60.1,58.4,30.15,South,180,0.0,-999.0,94,-99.99,,,0.00,Acu-Link.com,2013-01-15 03:16:00,
2013-01-14 22:31:00,60.1,58.7,30.15,SW,225,1.1,-999.0,95,-99.99,,,0.00,Acu-Link.com,2013-01-15 03:31:00,
2013-01-14 22:46:00,60.4,59.0,30.15,SSW,202,0.0,-999.0,95,-99.99,,,0.00,Acu-Link.com,2013-01-15 03:46:00,
2013-01-14 23:01:00,60.6,59.2,30.15,SSW,202,2.2,-999.0,95,-99.99,,,0.00,Acu-Link.com,2013-01-15 04:01:00,
2013-01-14 23:17:00,60.3,58.9,30.15,SW,225,0.0,-999.0,95,-99.99,,,0.00,Acu-Link.com,2013-01-15 04:17:00,
2013-01-14 23:32:00,59.9,58.5,30.15,SW,225,0.0,-999.0,95,-99.99,,,0.00,Acu-Link.com,2013-01-15 04:32:00,
2013-01-14 23:47:00,59.9,58.5,30.15,SW,225,1.7,-999.0,95,-99.99,,,0.00,Acu-Link.com,2013-01-15 04:47:00,